Other Public Products
Issued by NWS Grand Forks, ND

Home | Current Version | Previous Version | Graphics & Text | Print | Product List | Glossary On
Versions: 1 2 3 4 5 6 7 8 9 10 11 12 13 14 15 16 17 18 19 20 21 22 23 24 25 26 27 28 29 30 31 32 33 34 35 36 37 38 39 40 41 42 43 44 45 46 47 48 49 50
000
FPUS83 KFGF 230510
OPUFGF
PRAIRIE TO PINES WEATHER ROUNDUP
NATIONAL WEATHER SERVICE EASTERN NORTH DAKOTA/GRAND FORKS ND
1200 AM CDT SAT AUG 23 2014

 **SATELLITE DATA USED TO AUGMENT SKY COVER AT AUTOMATED STATIONS**
 *****  WEATHER ACROSS EASTERN NORTH DAKOTA  *****

CITY           SKY/WX    TMP DP  RH WIND       PRES   REMARKS
GRAND FORKS    CLOUDY    64  62  93 N10       30.09R
GRAND FORKS AF CLOUDY    64  64  97 N12       30.11R
GRAND CITY NWS   N/A     50 N/A N/A N7          N/A
BUXTON         NOT AVBL
DEVILS LAKE    CLOUDY    63  55  77 NE15      30.13S
FARGO          CLOUDY    68  64  87 N10       30.06S
WAHPETON ARPT  CLOUDY    66  63  88 N7        30.06R
$$

 *****  WEATHER ACROSS CENTRAL AND WESTERN NORTH DAKOTA  *****

CITY           SKY/WX    TMP DP  RH WIND       PRES   REMARKS
JAMESTOWN      MOCLDY    64  61  90 NE8       30.10R
BISMARCK       CLOUDY    66  63  90 E10       30.09S
MINOT          CLOUDY    62  59  90 N7        30.14R
MINOT AFB      CLOUDY    61  60  96 NE10      30.15R
GARRISON         N/A     63  59  87 E13G18    30.12S
WILLISTON      CLOUDY    63  56  78 NE9       30.14R
DICKINSON      RAIN      62  61  96 E16       30.08R FOG
HETTINGER      CLOUDY    65  62  90 E16       30.06F
$$

 *****  OTHER OBSERVATIONS NORTHEAST NORTH DAKOTA  *****

CITY           SKY/WX    TMP DP  RH WIND       PRES   REMARKS
WALHALLA         N/A     59  59 100 N10       30.15R FOG
LANGDON        CLOUDY    59  57  94 N10       30.15R
CAVALIER       CLOUDY    63  59  88 N9        30.13R FOG
GRAFTON        CLOUDY    63  63 100 N13       30.11S
CANDO          CLOUDY    59  57  94 NE8       30.17R
FORT TOTTEN      N/A     63  58  84 NE6       29.95S
ROLLA          CLOUDY    55  55 100 N13       30.19R
RUGBY          CLOUDY    59  57  94 NE14      30.16R
 ***** THE ABOVE OBSERVATIONS ARE NON NWS ARE NOT QUALITY
        CONTROLLED AND MAY MIS-REPORT RAIN FOR SNOW...
$$

 *****  OTHER OBSERVATIONS SOUTHEAST NORTH DAKOTA *****

CITY           SKY/WX    TMP DP  RH WIND       PRES   REMARKS
COOPERSTOWN    NOT AVBL
VALLEY CITY    CLOUDY    64  64 100 NE14G20   30.10R
OAKES            N/A     64  64 100 NE6       30.09R
GWINNER        CLOUDY    66  66 100 NE5       30.10R
SHEYENNE NWR     N/A     67  65  93 NE5       29.95
BUFFALO        NOT AVBL
WYNDMERE       NOT AVBL
 ***** THE ABOVE OBSERVATIONS ARE NON NWS ARE NOT QUALITY
       CONTROLLED AND MAY MIS-REPORT RAIN FOR SNOW...
$$

  *****  WEATHER ACROSS NORTHERN MINNESOTA  *****

CITY           SKY/WX    TMP DP  RH WIND       PRES   REMARKS
FLAG ISLAND    CLOUDY    68  64  88 NW8       30.08R
WARROAD        MOCLDY    64  61  88 N7        30.10R
ROSEAU         CLOUDY    64  61  88 N7        30.09S
HALLOCK        CLOUDY    64  61  88 N7        30.10F
THF RVR FALLS  CLOUDY    66  64  94 N10       30.08R
HALSTAD          N/A     66  63  89 N9          N/A
FOSSTON        CLOUDY    66  64  94 CALM      30.07R
BAUDETTE       CLEAR     64  63  96 NW3       30.08R
WASKISH        CLOUDY    70  66  88 CALM      30.07S
CROOKSTON      CLOUDY    66  64  94 N9        30.08S
$$
  *****  WEATHER ACROSS CENTRAL AND WEST MINNESOTA  *****

CITY           SKY/WX    TMP DP  RH WIND       PRES   REMARKS
BEMIDJI          N/A     65  65  99 CALM      30.05S
PARK RAPIDS    PTCLDY    66  66 100 CALM      30.05S
WADENA         CLEAR     64  64 100 CALM      30.04F
DETROIT LAKES  CLOUDY    68  66  94 N3        30.07S
MOORHEAD       CLOUDY    68  68 100 N7        30.07S
FERGUS FALLS   CLEAR     64  64 100 N3        30.05R
ELBOW LAKE     FAIR      67  66  96 N3        30.04S
MORRIS MN      MOCLDY    72  70  94 NW5       30.03R
STAPLES        CLEAR     66  66 100 CALM      30.05R
WHEATON        PTCLDY    64  63  94 NW3       30.07R
$$
  *****  WEATHER ELSEWHERE ACROSS MINNESOTA  *****

CITY           SKY/WX    TMP DP  RH WIND       PRES   REMARKS
DULUTH         CLOUDY    63  60  90 E3        30.07S FOG
INTRNTL FALLS  CLEAR     61  61 100 CALM      30.07R
ELY            CLOUDY    66  63  88 CALM      30.08S
CLOQUET        CLOUDY    63  61  94 E6        30.07F FOG
BRAINERD       PTCLDY    67  66  97 CALM      30.05S
HIBBING        CLOUDY    66  63  90 SE6       30.07S
ALEXANDRIA     MOCLDY    72  68  87 NE5       30.06R
SAINT CLOUD    PTCLDY    70  67  90 E3        30.03R
MINNEAPOLIS    PTCLDY    71  68  90 N5        30.01S
$$

  *****  WEATHER ACROSS SOUTH DAKOTA  *****

CITY           SKY/WX    TMP DP  RH WIND       PRES   REMARKS
SIOUX FALLS    CLOUDY    74  69  85 E7        29.97F
BROOKINGS      NOT AVBL
WATERTOWN      CLOUDY    69  67  93 NE10      30.05R
HURON          CLOUDY    74  68  81 E14       29.98F
SISSETON         N/A     67  66  97 NW6       30.05R
ABERDEEN       MOCLDY    67  66  97 NE12      30.05R
MITCHELL       CLOUDY    73  70  90 E5        29.96F
PIERRE         CLOUDY    70  67  90 E14       29.96F
MOBRIDGE       MOCLDY    68  66  93 NE13      30.01F
RAPID CITY     CLOUDY    67  64  90 NE9       30.00F
$$

  *****  SOME WEATHER IN NEARBY STATES *****

CITY           SKY/WX    TMP DP  RH WIND       PRES   REMARKS
GLASGOW MT     CLOUDY    62  53  72 E15       30.11R
GREAT FALLS MT CLOUDY    49  49 100 NW13      30.14S FOG
CHEYENNE WY    CLOUDY    58  55  90 SW12      30.09F
SCOTTSBLUFF NE LGT RAIN  63  62  97 E6        29.99F
OMAHA NE       CLOUDY    76  73  91 E8        29.91F
DES MOINES IA  CLOUDY    78  74  87 CALM      29.93R
DAVENPORT IA   PTCLDY    73  71  93 NE3       29.96S
CHICAGO IL     PTCLDY    77  70  79 CALM      29.98F
EAU CLAIRE WI  PTCLDY    70  69  97 CALM      30.00S
LA CROSSE WI   PTCLDY    74  71  91 N8        29.97S
$$

  *****  SOME NATIONAL WEATHER *****

CITY           SKY/WX    TMP DP  RH WIND       PRES   REMARKS
LA GUARDIA NY  MOCLDY    69  56  62 E12       30.05S
RALEIGH NC     CLOUDY    76  73  91 CALM      29.97F
ATLANTA GA     PTCLDY    80  72  76 NW6       30.04F
NEW ORLEANS LA CLEAR     83  75  77 SW8       30.03S HX  90
OKLAHOMA CITY  CLEAR     82  61  48 S9        29.95R
ALBUQUERQUE NM PTCLDY    60  56  86 SW7       30.17R
SALT LAKE CITY CLOUDY    60  56  86 S3        30.01R
LOS ANGELES CA CLOUDY    69  63  81 W8        29.96R
BOISE ID       PTCLDY    66  41  40 NW10      29.93R
SEATTLE WA     PTCLDY    69  56  62 NE8       30.10R
$$

*** WEATHER ACROSS MANITOBA...SASKATCHEWAN AND ONTARIO ***
                ***ONTARIO***

CITY           SKY/WX    TMP DP  RH WIND       PRES   REMARKS
GERALDTON      CLEAR     63  61  94 CALM      30.09R
THUNDER BAY    CLOUDY    63  61  94 CALM      30.08R
SIOUX LOOKOUT  MOCLDY    66  64  94 CALM      30.09R
TORONTO        CLOUDY    70  64  83 NE6       30.04R
BIG TROUT LK   CLOUDY    48  46  93 N7        30.20R FOG
PICKLE LAKE    NOT AVBL
DRYDEN         PTCLDY    64  63  94 VRB2      30.09R
KENORA         CLOUDY    66  64  94 N5        30.10R
$$
                *** MANITOBA***

CITY           SKY/WX    TMP DP  RH WIND       PRES   REMARKS
BRANDON        CLOUDY    57  54  88 NE13      30.21R
DAUPHIN        CLOUDY    55  55 100 N8        30.24S
ISLAND LAKE    LGT RAIN  50  48  93 NE6       30.29
PILOT MOUND      N/A     57  55  94 N10         N/A
THE PAS        CLEAR     55  48  76 NE6       30.33R
THOMPSON       CLEAR     48  45  87 NE9       30.38R
WINNIPEG       CLOUDY    59  57  94 N9        30.15R
LYNN LAKE      CLOUDY    50  45  81 MISG      30.41R
CHURCHILL      CLOUDY    48  41  76 N10       30.42R
GILLAM         MOCLDY    46  41  81 NE12G17   30.40R
$$
                ***SASKATCHEWAN***

CITY           SKY/WX    TMP DP  RH WIND       PRES   REMARKS
ESTEVAN        CLOUDY    57  54  88 E12       30.20R
KINDERSLEY     CLOUDY    52  46  82 N9        30.31S
LLOYDMINSTER   CLOUDY    50  43  76 N6        30.36S
PRINCE ALBERT  MOCLDY    57  55  94 NE5       30.31R
REGINA         CLOUDY    57  50  77 E10       30.23R


USA.gov is the U.S. government's official web portal to all federal, state and local government web resources and services.